RH
81 91 85 86 83 84 84 87 86 87 91 92 93 91 91 90 93 96 95 92 94 94 90 93 91 88 95 95 96 96 92 83 91 78 90 86 82 84 81 84 85 86 90
80 91 91 86 86 81 81 84 86 89 92 93 94 92 93 92 94 94 91 87 92 91 89 90 91 89 93 96 90 95 95 94 89 93 88 88 85 77 80 86 76 66 85
77 86 89 83 88 87 84 84 88 86 90 92 94 94 93 92 94 95 93 91 88 89 88 88 87 88 91 94 88 95 95 95 96 93 94 91 88 85 80 87 88 87 82
78 87 90 80 84 84 87 89 87 90 92 93 93 92 93 93 92 91 90 92 87 82 85 87 86 87 88 90 91 91 94 96 96 94 94 87 88 83 87 87 90 92 90
82 83 87 83 84 84 88 92 88 92 88 89 94 94 93 90 80 91 91 91 90 88 87 89 86 87 90 88 93 91 96 97 97 97 96 90 85 83 94 83 96 92 91
80 81 85 92 89 87 89 91 94 92 92 93 93 92 94 84 91 90 91 94 92 92 91 90 90 91 91 93 94 91 93 97 97 96 96 96 90 94 93 95 94 94 94
85 80 87 89 93 91 91 91 91 92 92 91 92 93 93 92 95 94 97 97 96 95 93 92 91 80 93 91 96 97 98 99 99 99 98 94 92 91 92 95 95 95 92
87 86 92 92 93 93 94 93 92 94 95 94 94 94 94 95 98 100 97 97 97 96 98 96 96 94 93 93 92 92 93 92 95 97 98 96 96 96 98 97 98 96 96
88 89 92 87 88 95 96 94 95 97 98 97 94 95 96 96 100 100 100 99 98 95 93 95 97 96 99 100 95 94 94 97 95 95 95 96 98 99 99 99 98 99 98
88 89 91 91 91 93 94 95 96 95 95 97 96 95 95 94 100 100 100 99 98 99 100 99 99 98 100 100 94 96 96 97 92 90 91 91 93 92 94 96 99 99 99
86 88 94 94 93 93 94 96 97 97 97 97 96 96 95 96 99 100 100 96 96 98 98 100 99 99 100 100 100 96 97 94 94 92 90 96 94 94 95 97 98 100 100
92 93 95 95 94 95 96 98 97 97 98 98 98 100 98 98 100 100 100 100 99 96 98 98 98 100 100 99 94 94 90 90 82 80 87 95 98 99 98 98 97 97 98
94 93 94 94 93 94 95 97 99 99 99 99 98 99 100 98 97 99 100 99 100 97 98 100 99 100 100 94 92 94 96 84 86 88 96 98 98 97 94 93 94 94 95
97 95 94 95 99 98 98 98 99 98 98 95 98 98 99 99 99 98 97 97 99 97 99 97 98 96 98 94 93 94 91 83 88 95 97 96 95 96 96 94 94 95 93
99 98 99 99 99 100 100 100 100 100 98 96 97 96 97 99 97 99 99 98 98 99 98 98 99 98 97 97 95 93 94 90 90 93 94 94 95 95 97 95 91 91 91
97 99 99 99 99 99 100 100 99 99 100 100 100 96 98 98 100 100 100 100 100 100 97 97 97 96 94 91 91 92 91 92 87 90 95 94 94 94 95 96 96 91 90
99 99 99 99 99 99 100 100 100 99 99 100 100 100 100 100 100 100 100 100 100 100 92 92 90 88 88 90 87 85 90 90 89 90 90 93 93 91 92 93 93 91 86
98 100 99 99 99 97 98 98 97 97 98 99 99 99 100 100 100 100 100 100 99 99 94 90 89 88 88 88 86 89 91 94 92 89 91 86 84 88 89 87 88 89 81
99 99 98 98 98 99 98 98 97 96 93 97 97 99 98 100 100 100 100 96 96 97 97 91 87 86 84 84 84 89 85 85 88 86 84 88 90 84 84 80 78 94 88
98 99 99 97 98 98 97 96 95 93 92 95 95 95 96 97 96 96 96 96 93 88 89 88 85 85 84 86 89 90 89 90 90 89 85 81 81 87 81 79 74 73 74
97 97 97 95 96 97 90 90 89 87 85 84 89 93 100 91 93 94 94 96 93 86 86 84 85 82 83 84 86 86 85 82 85 84 84 84 82 81 82 78 75 72 69
96 97 98 98 96 93 86 86 88 85 83 83 86 95 100 90 89 90 93 90 87 83 78 82 79 78 77 78 80 76 76 76 77 78 79 79 80 79 78 79 76 75 73
96 94 95 97 98 98 94 90 83 83 80 76 76 87 93 91 91 86 83 80 81 80 79 79 78 77 77 77 75 73 72 71 70 70 72 75 76 75 74 73 72 72 72
94 97 91 95 97 97 95 92 82 88 75 75 74 77 85 86 85 81 78 78 78 76 76 82 75 73 74 76 76 75 73 71 71 70 71 70 70 77 72 73 69 69 67
94 98 97 97 97 97 93 86 84 80 79 77 77 75 74 76 78 76 75 77 76 75 78 82 81 73 74 75 72 73 87 100 87 87 74 75 74 76 73 70 70 68 69
95 94 98 99 98 92 78 78 77 79 78 76 78 78 74 75 72 73 75 77 75 74 73 77 75 74 71 67 70 89 98 94 80 100 80 78 76 75 73 73 73 72 72
Wind_Speed
14 11 11 10 10 8 9 8 9 7 6 6 6 6 8 8 6 6 7 5 6 5 5 5 6 5 4 4 3 3 4 4 4 3 2 2 4 5 4 4 5 6 6
13 12 12 12 11 11 11 9 8 9 6 7 6 7 7 7 6 8 9 8 8 7 7 6 7 4 6 5 4 5 4 4 4 6 2 3 5 3 4 5 6 6 6
15 14 13 12 13 13 11 9 9 9 7 5 5 7 7 7 6 7 7 7 7 7 7 7 8 6 6 5 6 5 4 4 5 5 4 2 3 2 4 4 5 5 5
14 14 16 16 15 13 11 10 10 9 8 8 7 7 7 7 7 7 7 7 7 8 8 8 10 9 9 7 6 7 6 5 5 6 6 5 5 4 4 5 5 4 5
14 14 15 10 10 11 12 12 11 10 10 9 8 7 7 7 7 8 8 8 9 10 9 9 9 10 12 11 6 8 7 6 5 6 6 4 5 5 6 3 4 4 4
14 15 10 11 11 13 12 12 12 12 12 11 11 11 10 8 10 14 11 7 8 9 9 8 9 12 13 14 14 15 10 8 8 5 6 7 9 5 4 5 5 4 5
15 11 12 11 9 10 12 11 13 14 11 13 12 11 12 12 15 12 10 7 9 10 10 9 8 7 10 8 8 12 9 9 6 4 7 6 7 4 4 6 6 6 7
14 13 14 15 17 13 11 13 11 10 13 12 11 11 10 9 12 14 17 11 11 12 7 7 8 7 6 6 6 6 2 1 1 2 4 6 6 6 6 6 8 8 7
14 14 16 16 8 11 11 12 10 8 7 9 8 10 10 8 13 14 12 10 10 7 5 3 4 6 1 5 5 4 4 3 4 3 3 5 6 7 6 4 5 6 6
13 14 12 11 12 13 14 13 10 8 9 7 8 8 9 7 10 11 10 5 5 4 3 3 6 5 5 4 4 4 3 2 2 3 4 5 6 6 7 4 4 5 5
9 8 10 12 14 14 11 9 10 9 7 9 8 6 7 7 6 10 10 5 4 5 5 3 2 5 5 8 7 3 3 4 5 4 3 4 5 4 4 4 4 3 3
6 8 9 11 9 7 9 6 6 7 7 6 6 4 3 5 6 7 8 5 5 5 5 4 4 5 9 9 7 8 9 6 4 5 4 5 3 3 4 3 4 5 4
8 10 11 11 10 9 9 8 5 6 6 8 8 6 4 3 4 7 7 6 5 3 4 8 11 9 11 11 11 8 6 5 6 5 4 3 2 3 4 3 3 1 4
9 10 9 9 8 8 6 5 6 6 6 8 7 6 5 4 4 3 4 5 8 7 10 7 6 7 6 9 7 5 4 4 4 4 2 1 1 3 4 2 2 2 4
6 4 5 4 5 6 7 4 3 3 2 8 6 7 8 6 6 9 8 6 6 7 9 6 4 4 5 4 4 4 3 4 3 2 2 2 3 2 2 2 2 2 4
4 4 7 10 10 7 4 3 12 9 5 3 7 8 2 5 14 13 10 10 12 14 5 5 5 5 6 6 5 4 3 5 3 3 2 2 1 1 1 1 1 1 2
5 5 5 5 12 18 6 3 3 5 9 8 5 9 11 11 15 16 12 11 11 7 4 6 6 7 6 6 6 5 4 5 4 4 3 2 1 0 1 0 1 1 0
7 9 6 7 8 10 13 12 7 6 5 3 7 2 6 10 11 14 16 12 4 2 4 6 6 5 5 5 6 5 4 5 5 5 4 3 3 2 1 1 2 2 1
6 6 8 9 7 8 9 10 12 8 6 4 3 4 5 9 11 10 10 6 8 7 6 6 5 5 5 5 5 5 5 6 5 5 5 4 3 3 3 3 3 4 2
7 13 11 10 9 9 9 11 12 9 6 7 6 6 6 5 5 6 6 5 6 6 6 7 7 5 5 5 5 4 5 5 6 6 5 4 4 4 4 4 4 3 3
3 4 11 9 9 8 8 10 9 11 8 8 8 8 10 8 8 8 7 6 7 6 6 7 6 6 5 4 4 5 6 6 6 6 6 6 5 5 6 5 4 4 4
7 4 4 6 6 7 9 8 10 10 9 8 7 6 12 8 8 8 8 8 8 7 6 6 6 6 6 6 7 6 6 7 6 6 6 6 6 6 6 5 5 5 5
6 7 6 5 2 7 7 8 10 10 10 9 9 8 10 9 7 7 6 6 7 7 7 6 5 5 6 7 7 8 8 8 8 7 7 7 7 7 6 6 6 6 6
6 6 11 10 7 8 10 9 9 9 9 9 9 9 9 9 9 8 7 7 7 7 6 6 7 9 8 7 6 7 8 7 6 7 9 7 8 7 7 8 8 9 8
6 4 4 9 11 10 10 9 8 9 8 8 9 8 8 8 7 7 7 7 6 6 7 6 5 9 11 11 9 9 9 10 10 9 8 10 11 10 9 8 9 9 11
5 6 6 4 5 7 7 8 8 8 9 8 7 7 8 7 7 7 7 7 6 6 6 3 2 3 2 2 3 5 5 5 6 9 8 7 8 8 8 10 12 9 10
Wind_Direction
182 183 179 181 189 182 192 196 200 196 195 210 210 209 209 217 203 193 220 225 224 237 230 220 239 235 235 231 223 222 214 201 227 271 254 290 288 284 246 242 243 251 255
185 175 185 175 177 187 199 200 195 204 190 207 202 206 209 213 192 207 218 211 215 223 232 229 238 223 249 237 225 230 231 211 222 248 251 258 242 270 275 277 269 258 247
181 177 186 184 181 191 199 195 196 202 205 199 194 209 212 205 199 216 220 216 217 220 225 228 245 232 244 237 238 244 237 235 217 231 253 231 262 262 278 265 266 273 265
188 183 190 189 187 189 189 187 195 196 196 201 201 207 214 208 205 212 217 232 232 232 226 227 239 230 234 240 235 235 238 242 236 240 249 258 253 257 248 260 269 235 263
185 194 198 193 187 185 185 186 189 193 204 206 199 208 214 218 225 214 215 218 232 239 236 234 234 233 228 227 223 242 231 234 238 243 252 249 247 247 235 247 248 267 264
196 198 178 180 184 186 197 182 185 196 201 195 207 208 211 223 209 211 210 222 234 233 237 237 235 236 239 230 224 236 232 221 233 231 241 243 258 260 251 248 260 274 286
196 189 179 191 190 195 189 193 196 199 197 206 208 204 213 219 206 204 186 230 246 244 231 233 239 241 229 243 257 244 247 249 223 240 254 254 275 267 290 278 256 252 260
189 180 180 179 187 197 183 202 210 200 195 200 207 207 212 220 188 190 197 211 229 241 227 226 237 250 239 232 236 248 289 143 98 258 277 299 306 308 289 283 283 280 275
191 187 181 208 185 174 188 201 201 191 191 203 206 202 206 223 195 193 177 200 219 231 227 218 260 262 141 224 204 183 139 121 58 22 326 317 323 323 302 285 269 266 275
197 192 186 189 193 188 196 199 196 195 210 194 205 198 206 214 182 178 172 169 181 170 150 123 40 126 128 167 128 141 167 125 16 33 34 12 6 1 7 13 335 307 291
196 179 174 182 193 198 193 187 191 188 190 197 205 189 178 173 171 165 172 161 170 157 155 151 117 118 107 91 102 119 122 126 74 78 60 44 33 14 360 357 357 337 309
176 171 180 187 196 189 184 187 180 185 188 190 167 137 134 142 128 137 146 149 153 161 161 132 123 131 108 100 90 108 124 121 122 103 80 56 20 6 3 7 36 40 42
198 187 193 189 190 181 181 182 172 187 179 169 169 158 150 120 101 92 95 115 136 113 117 119 122 123 115 106 114 119 132 131 123 112 90 76 48 10 33 53 51 38 55
222 199 188 183 178 175 170 172 172 171 162 173 170 150 143 147 145 148 129 127 113 99 108 115 131 120 104 120 117 123 125 131 128 110 96 73 13 46 57 38 25 11 35
236 196 163 130 111 80 57 41 109 76 183 166 169 162 156 172 191 171 155 158 146 136 121 121 137 143 154 142 133 142 138 157 138 138 114 82 59 51 58 30 14 62 74
240 163 153 121 106 75 56 52 36 40 14 71 171 164 130 118 143 156 159 145 134 145 133 152 164 174 179 177 176 169 187 195 186 193 154 95 84 60 81 106 277 58 54
232 169 159 191 140 159 151 162 172 42 43 39 142 158 155 162 160 156 145 129 147 142 146 171 180 191 198 198 194 191 194 195 182 200 194 167 205 198 146 40 265 303 41
206 175 154 160 165 162 156 177 158 153 197 163 35 71 128 151 153 148 137 119 125 252 192 191 199 203 213 213 202 196 172 174 189 198 200 210 223 223 223 232 256 240 231
197 178 172 174 185 168 170 176 143 149 206 166 135 85 78 99 115 135 169 161 175 188 200 212 212 218 210 209 209 196 180 185 188 197 211 208 213 206 224 234 242 249 254
198 186 175 180 186 175 182 168 129 148 186 186 192 177 158 148 170 172 187 184 187 197 204 215 215 216 217 214 206 191 185 183 193 204 219 220 208 201 224 229 229 226 229
210 196 178 186 186 188 197 158 149 144 186 196 201 187 187 185 182 185 183 184 200 207 206 211 211 208 212 215 206 199 199 199 201 204 207 214 214 219 219 220 227 223 223
197 189 194 195 196 192 178 169 146 151 182 190 188 185 185 208 194 188 185 194 201 201 205 205 205 204 207 209 205 200 203 209 209 215 219 220 218 223 224 227 230 230 233
189 199 191 193 182 199 173 161 159 166 181 181 181 173 187 211 207 193 184 196 197 191 191 204 221 235 222 216 210 210 213 217 217 208 216 220 222 222 221 230 234 242 243
183 208 196 175 184 189 185 172 169 160 176 171 185 191 188 196 202 196 190 194 190 193 197 194 216 228 235 224 212 219 230 233 221 221 219 224 231 225 231 232 237 240 249
179 170 188 170 176 175 177 162 165 163 175 178 189 197 198 196 192 193 193 195 193 194 191 182 206 232 238 233 227 224 226 210 221 218 213 219 228 230 234 238 240 241 242
200 179 166 168 171 175 164 158 172 167 172 180 185 186 196 195 198 193 193 191 190 196 202 175 179 191 152 71 357 346 345 301 264 236 226 223 228 230 230 233 237 237 249